Auburn-Lewiston, ME

4:27 AM EST on November 20, 2017 (GMT -0500)
Auburn-Lewiston Municipal

Weather History for KLEW - April, 2014

Change the Weather History Date:

Tuesday, April 29, 2014

  Actual Average Record
Temperature  
Mean Temperature 46 °F -  
Max Temperature 55 °F 58 °F 77 °F (2017)
Min Temperature 37 °F 36 °F 26 °F (2001)
Degree Days  
Heating Degree Days 19    
Moisture  
Dew Point 31 °F    
Average Humidity 63    
Maximum Humidity 81    
Minimum Humidity 38    
Precipitation  
Precipitation 0.00 in - - ()
Sea Level Pressure  
Sea Level Pressure 30.45 in    
Wind  
Wind Speed 9 mph (ENE)    
Max Wind Speed 15 mph    
Max Gust Speed 22 mph    
Visibility 10 miles    
Events      
Averages and records for this station are not official NWS values.
T = Trace of Precipitation, MM = Missing Value Source: NWS Daily Summary

Daily Weather History Graph

Daily Weather History Graph

Search for Another Location

Airport or City:

Trip Planner

Search our weather history database for the weather conditions in past years. The results will help you decide how hot, cold, wet, or windy it might be!

Date:

Astronomy

Apr. 29, 2014 Rise Set
Actual Time 5:35 AM EDT 7:42 PM EDT
Civil Twilight 5:04 AM EDT 8:13 PM EDT
Nautical Twilight 4:25 AM EDT 8:52 PM EDT
Astronomical Twilight 3:42 AM EDT 9:35 PM EDT
Moon 5:51 AM EDT (4/29) 8:19 PM EDT (4/29)
Length of Visible Light 15h 09m
Length of Day
14h 06m
New Moon, 0% of the Moon is Illuminated
Apr 29
New Moon
May 6
First Quarter
May 14
Full
May 21
Last Quarter
May 28
New

Hourly Weather History & Observations

Time (EDT) Temp. Windchill Dew Point Humidity Pressure Visibility Wind Dir Wind Speed Gust Speed Precip Events Conditions
12:15 AM 44.6 °F 40.7 °F 33.8 °F 66% 30.29 in 10.0 mi NE 6.9 mph - N/A   Overcast
12:35 AM 44.6 °F 40.7 °F 32.0 °F 61% 30.30 in 10.0 mi ENE 6.9 mph 17.3 mph N/A   Overcast
12:55 AM 44.6 °F 38.4 °F 32.0 °F 61% 30.30 in 10.0 mi NE 12.7 mph 21.9 mph N/A   Overcast
1:15 AM 42.8 °F 37.0 °F 30.2 °F 61% 30.30 in 10.0 mi NE 10.4 mph 19.6 mph N/A   Overcast
1:35 AM 42.8 °F 35.8 °F 30.2 °F 61% 30.30 in 10.0 mi NE 13.8 mph 20.7 mph N/A   Overcast
1:55 AM 42.8 °F 37.0 °F 30.2 °F 61% 30.31 in 10.0 mi NE 10.4 mph 16.1 mph N/A   Overcast
2:15 AM 42.8 °F 36.6 °F 30.2 °F 61% 30.32 in 10.0 mi NNE 11.5 mph - N/A   Overcast
2:35 AM 41.0 °F 33.5 °F 30.2 °F 65% 30.32 in 10.0 mi NE 13.8 mph 17.3 mph N/A   Mostly Cloudy
2:55 AM 41.0 °F 34.7 °F 30.2 °F 65% 30.32 in 10.0 mi NE 10.4 mph - N/A   Overcast
3:15 AM 41.0 °F 33.9 °F 30.2 °F 65% 30.32 in 10.0 mi NE 12.7 mph 17.3 mph N/A   Overcast
3:35 AM 41.0 °F 33.9 °F 28.4 °F 61% 30.33 in 10.0 mi NE 12.7 mph 19.6 mph N/A   Overcast
3:55 AM 39.2 °F 31.2 °F 28.4 °F 65% 30.34 in 10.0 mi NE 13.8 mph 18.4 mph N/A   Mostly Cloudy
4:15 AM 39.2 °F 32.5 °F 30.2 °F 70% 30.36 in 10.0 mi NE 10.4 mph 17.3 mph N/A   Overcast
4:35 AM 39.2 °F 32.0 °F 28.4 °F 65% 30.37 in 10.0 mi NE 11.5 mph - N/A   Overcast
4:55 AM 39.2 °F 33.0 °F 28.4 °F 65% 30.38 in 10.0 mi NE 9.2 mph - N/A   Overcast
5:15 AM 39.2 °F 32.5 °F 28.4 °F 65% 30.37 in 10.0 mi NE 10.4 mph - N/A   Overcast
5:35 AM 39.2 °F 32.5 °F 28.4 °F 65% 30.38 in 10.0 mi NNE 10.4 mph - N/A   Overcast
5:55 AM 39.2 °F 34.2 °F 28.4 °F 65% 30.39 in 10.0 mi NNE 6.9 mph - N/A   Overcast
6:15 AM 39.2 °F 33.6 °F 28.4 °F 65% 30.40 in 10.0 mi NNE 8.1 mph - N/A   Overcast
6:35 AM 39.2 °F 33.0 °F 30.2 °F 70% 30.41 in 10.0 mi NE 9.2 mph - N/A   Overcast
6:55 AM 39.2 °F 33.0 °F 30.2 °F 70% 30.43 in 10.0 mi NNE 9.2 mph - N/A   Overcast
7:15 AM 39.2 °F 31.6 °F 30.2 °F 70% 30.43 in 10.0 mi NNE 12.7 mph - N/A   Overcast
7:35 AM 39.2 °F 32.0 °F 30.2 °F 70% 30.42 in 10.0 mi NE 11.5 mph 16.1 mph N/A   Overcast
7:55 AM 41.0 °F 33.1 °F 30.2 °F 65% 30.42 in 10.0 mi NE 15.0 mph 20.7 mph N/A   Overcast
8:15 AM 41.0 °F 34.3 °F 30.2 °F 65% 30.45 in 10.0 mi NE 11.5 mph 19.6 mph N/A   Overcast
8:35 AM 42.8 °F 37.0 °F 30.2 °F 61% 30.47 in 10.0 mi NNE 10.4 mph 17.3 mph N/A   Overcast
8:55 AM 42.8 °F 37.5 °F 30.2 °F 61% 30.48 in 10.0 mi NE 9.2 mph - N/A   Overcast
9:15 AM 42.8 °F 36.6 °F 30.2 °F 61% 30.47 in 10.0 mi NNE 11.5 mph - N/A   Overcast
9:35 AM 42.8 °F 38.0 °F 30.2 °F 61% 30.47 in 10.0 mi ENE 8.1 mph - N/A   Overcast
9:55 AM 44.6 °F 39.2 °F 30.2 °F 57% 30.47 in 10.0 mi ENE 10.4 mph - N/A   Overcast
10:15 AM 44.6 °F 39.7 °F 30.2 °F 57% 30.49 in 10.0 mi North 9.2 mph - N/A   Overcast
10:35 AM 44.6 °F 39.2 °F 30.2 °F 57% 30.49 in 10.0 mi NE 10.4 mph 16.1 mph N/A   Overcast
10:55 AM 46.4 °F 44.3 °F 32.0 °F 57% 30.49 in 10.0 mi East 4.6 mph - N/A   Overcast
11:15 AM 46.4 °F 41.9 °F 30.2 °F 53% 30.48 in 10.0 mi NNE 9.2 mph - N/A   Overcast
11:55 AM 48.2 °F - 32.0 °F 54% 30.49 in 10.0 mi NE 6.9 mph - N/A   Mostly Cloudy
12:15 PM 48.2 °F - 32.0 °F 54% 30.48 in 10.0 mi NE 9.2 mph - N/A   Mostly Cloudy
12:35 PM 48.2 °F - 32.0 °F 54% 30.48 in 10.0 mi NE 10.4 mph 16.1 mph N/A   Mostly Cloudy
12:55 PM 51.8 °F - 32.0 °F 47% 30.47 in 10.0 mi NE 10.4 mph - N/A   Mostly Cloudy
1:15 PM 51.8 °F - 32.0 °F 47% 30.47 in 10.0 mi NE 10.4 mph - N/A   Scattered Clouds
1:35 PM 51.8 °F - 33.8 °F 50% 30.48 in 10.0 mi ENE 8.1 mph - N/A   Partly Cloudy
1:55 PM 53.6 °F - 33.8 °F 47% 30.47 in 10.0 mi ESE 9.2 mph - N/A   Clear
2:15 PM 53.6 °F - 30.2 °F 41% 30.47 in 10.0 mi ENE 6.9 mph - N/A   Clear
2:35 PM 55.4 °F - 30.2 °F 38% 30.47 in 10.0 mi East 6.9 mph - N/A   Clear
2:55 PM 53.6 °F - 32.0 °F 44% 30.47 in 10.0 mi SSE 9.2 mph - N/A   Mostly Cloudy
3:15 PM 53.6 °F - 33.8 °F 47% 30.47 in 10.0 mi South 12.7 mph - N/A   Partly Cloudy
3:35 PM 53.6 °F - 33.8 °F 47% 30.47 in 10.0 mi South 12.7 mph - N/A   Clear
3:55 PM 51.8 °F - 35.6 °F 54% 30.47 in 10.0 mi South 11.5 mph 18.4 mph N/A   Clear
4:15 PM 51.8 °F - 35.6 °F 54% 30.47 in 10.0 mi South 13.8 mph - N/A   Clear
4:35 PM 48.2 °F - 33.8 °F 58% 30.48 in 10.0 mi South 12.7 mph - N/A   Clear
5:15 PM 44.6 °F 38.4 °F 33.8 °F 66% 30.49 in 10.0 mi SSE 12.7 mph 19.6 mph N/A   Clear
5:35 PM 42.8 °F 36.6 °F 33.8 °F 70% 30.51 in 10.0 mi South 11.5 mph - N/A   Clear
5:55 PM 42.8 °F 37.5 °F 33.8 °F 70% 30.51 in 10.0 mi South 9.2 mph - N/A   Clear
6:15 PM 42.8 °F 36.6 °F 33.8 °F 70% 30.52 in 10.0 mi South 11.5 mph - N/A   Partly Cloudy
6:35 PM 42.8 °F 37.0 °F 33.8 °F 70% 30.53 in 10.0 mi South 10.4 mph 17.3 mph N/A   Clear
6:55 PM 42.8 °F 38.0 °F 33.8 °F 70% 30.53 in 10.0 mi South 8.1 mph - N/A   Clear
7:15 PM 41.0 °F 35.2 °F 32.0 °F 70% 30.53 in 10.0 mi South 9.2 mph - N/A   Clear
7:35 PM 41.0 °F 36.4 °F 32.0 °F 70% 30.54 in 10.0 mi South 6.9 mph - N/A   Clear
7:55 PM 41.0 °F 38.0 °F 32.0 °F 70% 30.54 in 10.0 mi South 4.6 mph - N/A   Clear
8:15 PM 39.2 °F 35.9 °F 30.2 °F 70% 30.54 in 10.0 mi South 4.6 mph - N/A   Clear
8:35 PM 39.2 °F - 30.2 °F 70% 30.55 in 10.0 mi Calm Calm - N/A   Clear
8:55 PM 39.2 °F - 30.2 °F 70% 30.55 in 10.0 mi Calm Calm - N/A   Clear
9:15 PM 39.2 °F - 30.2 °F 70% 30.56 in 10.0 mi Calm Calm - N/A   Clear
9:35 PM 39.2 °F - 30.2 °F 70% 30.56 in 10.0 mi Calm Calm - N/A   Clear
9:55 PM 39.2 °F - 30.2 °F 70% 30.56 in 10.0 mi Calm Calm - N/A   Clear
10:15 PM 37.4 °F - 32.0 °F 81% 30.56 in 10.0 mi Calm Calm - N/A   Clear
10:35 PM 37.4 °F - 32.0 °F 81% 30.55 in 10.0 mi Calm Calm - N/A   Clear
10:55 PM 37.4 °F - 32.0 °F 81% 30.56 in 10.0 mi Calm Calm - N/A   Partly Cloudy
11:15 PM 39.2 °F - 33.8 °F 81% 30.55 in 10.0 mi Calm Calm - N/A   Scattered Clouds
11:35 PM 39.2 °F - 32.0 °F 75% 30.55 in 10.0 mi Calm Calm - N/A   Clear
11:55 PM 37.4 °F - 32.0 °F 81% 30.55 in 10.0 mi Calm Calm - N/A   Clear